Location: De Greiden
(52.9496°N, 5.9137°E)
Time: 00:45:04
(UTC+00:00)

NOSS 2-1 (D) - Pass Details

Date: 24 January 2021
Orbit: 434 x 1768 km, 63.3° (Epoch: 24 February)

Event Time Altitude Azimuth Distance (km) Brightness Sun altitude
Rises 18:39:23 0° 220° (SW) 2,422 7.2 -22.7°
Reaches altitude 10° 18:41:25 10° 218° (SW) 1,538 6.1 -23.0°
Enters shadow 18:43:25 35° 211° (SSW) 731 4.1 -23.3°
